Tracking 19170 objects as of 23-May-2018
HD Live streaming from Space Station
objects crossing your sky now

SUPERBIRD 6

Track SUPERBIRD 6 now!
SUPERBIRD 6 is classified as:


NORAD ID: 28218
Int'l Code: 2004-011A
Perigee: 35,893.1 km
Apogee: 36,151.8 km
Inclination: 10.4 °
Period: 1,447.8 minutes
Semi major axis: 42393 km
RCS: 5.0118 m2 (large)
Launch date: April 16, 2004
Source: Japan (JPN)
Launch site: AIR FORCE EASTERN TEST RANGE (AFETR)

Television and internet to the Asia-Pacific region; 23 Ku-band, 4 Ka-band transponders
aabbcc
Your satellite tracking list
Your tracking list is empty




NASA's NSSDC Master Catalog

Two Line Element Set (TLE):
1 28218U 04011A   18142.38470176  .00000051  00000-0  00000+0 0  9994
2 28218  10.4248  38.0023 0030514 328.2553 223.6580  0.99461400 51138
Source of the keplerian elements: AFSPC